Location: Watson Lake
(60.1170°N, 128.8000°W)
Time: 22:20:32
(UTC-07:00)

Daily predictions for brighter satellites

Satellite Brightness Start Highest point End
(mag) Time Altitude Azimuth Time Altitude Azimuth Time Altitude Azimuth
Meteor 1-22 Rocket 4.4 19:59:28 10° SSE 20:04:29 44° E 20:09:30 10° NNE
Cosmos 2360 Rocket 2.8 19:58:53 10° WSW 20:04:32 63° NW 20:10:13 10° NE
Cosmos 2219 Rocket 2.3 19:59:36 10° SSW 20:05:10 62° ESE 20:10:46 10° NE
Meteor 1-24 Rocket 4.1 19:59:29 10° NNW 20:05:18 74° WSW 20:10:52 10° S
Cosmos 1980 Rocket 3.7 20:00:17 10° W 20:05:23 32° NNW 20:10:29 10° NE
SKYMED 2 3.5 20:01:40 10° NNE 20:06:04 76° ESE 20:10:25 10° SSW
SJ-6B 3.6 20:03:59 10° S 20:07:58 60° WSW 20:12:03 10° NNW
Helios 1B rocket 3.2 20:04:25 10° NNE 20:08:04 29° E 20:11:42 10° SSE
Cosmos 2322 4.3 20:02:29 10° SW 20:08:09 63° NW 20:13:48 10° NE
USA 215 4.4 20:04:06 10° E 20:08:58 22° SE 20:13:48 10° S
SPOT 5 4.3 20:06:35 10° E 20:09:33 18° NE 20:12:33 10° N
METEOR-M 4.3 20:06:42 10° SSE 20:12:05 81° WSW 20:17:29 10° NNW
Cosmos 1452 Rocket 3.7 20:07:15 10° NW 20:12:34 79° WSW 20:17:49 10° SSE
Cosmos 2233 Rocket 4.0 20:06:41 10° S 20:13:00 81° E 20:19:22 10° NNE
Cosmos 1500 Rocket 4.2 20:08:52 10° N 20:13:00 38° ENE 20:17:09 10° SE
Cosmos 2333 4.3 20:07:52 10° SW 20:13:41 87° SE 20:19:31 10° NE
Cosmos 1408 Rocket 3.5 20:09:41 10° NNW 20:14:07 80° ENE 20:18:29 10° SSE
Cosmos-2242 4.1 20:10:50 10° SE 20:14:26 25° E 20:18:04 10° NNE
DMSP B5D1-3 4.5 20:09:55 10° NNE 20:15:02 71° ESE 20:20:08 10° S
Cosmos 1758 4.4 20:12:31 10° SE 20:15:58 26° E 20:19:25 10° NNE
SeaSat 1 4.1 20:15:30 10° ENE 20:17:49 13° E 20:20:07 10° SE
FENGYUN 3A 3.7 20:13:18 10° SSE 20:18:39 72° ENE 20:24:04 10° NNW
Cosmos 2112 Rocket 4.0 20:13:20 10° SSW 20:18:40 73° ESE 20:24:02 10° NE
Cosmos 2369 Rocket 2.3 20:13:36 10° NW 20:19:14 65° NE 20:24:53 10° SE
ERS-1 Rocket 3.6 20:15:39 10° ESE 20:20:14 37° NE 20:24:51 10° N
Cosmos 1607 4.2 20:15:56 10° SSW 20:21:46 47° SE 20:27:37 10° ENE
Cosmos 1680 Rocket 3.6 20:18:25 10° SSW 20:23:46 85° ESE 20:29:08 10° NNE
Cosmos 2151 3.9 20:20:31 10° N 20:24:15 29° ENE 20:27:58 10° ESE
Lacrosse 4 Rocket 2.9 20:22:52 10° W 20:27:06 37° NNW 20:31:21 10° NE
CZ-4B DEB 2.7 20:24:58 10° SSE 20:28:15 79° ENE 20:31:33 10° NNW
Resurs 01 Rocket 2.2 20:24:39 10° S 20:29:06 65° WSW 20:33:33 10° NNW
Cosmos 1943 Rocket 2.6 20:24:53 10° NW 20:30:25 49° NE 20:35:24 12° ESE
SL-16 R/B 3.6 20:26:34 10° W 20:31:48 36° NNW 20:37:03 10° NE
ATLAS CENTAUR R/B 4.3 20:29:36 10° W 20:31:53 14° WSW 20:34:05 10° SW
Resurs 1-3 3.9 20:28:23 10° S 20:32:47 72° WSW 20:37:13 10° NNW
Cosmos 292 Rocket 3.8 20:29:12 10° SSW 20:33:58 65° ESE 20:38:47 10° NE
ATLAS 3B R/B 2.9 20:27:49 10° SW 20:35:20 73° SE 20:42:32 10° ENE
Cosmos 1420 Rocket 4.1 20:31:13 10° NNW 20:36:32 83° WSW 20:41:51 10° SSE
Cosmos 1674 2.9 20:33:50 10° N 20:37:40 54° ENE 20:41:30 10° SSE
Cosmos 1939 Rocket 3.6 20:36:32 12° SE 20:39:55 35° ENE 20:43:34 10° N
Cosmos 2333 Rocket 2.2 20:35:04 10° SSW 20:40:50 78° SE 20:46:38 10° NE
Cosmos 1743 Rocket 3.5 20:36:27 10° NNW 20:40:59 76° ENE 20:45:25 10° SSE
Cosmos 1328 4.4 20:38:15 10° N 20:41:59 37° ENE 20:45:08 13° SE
Cosmos 1331 Rocket 4.4 20:36:51 10° NNW 20:42:04 50° NE 20:46:30 14° ESE
Cosmos 2058 3.9 20:38:50 10° N 20:42:30 30° ENE 20:45:11 15° ESE
Meteor 1-21 Rocket 4.3 20:39:48 10° NNW 20:45:28 82° WSW 20:51:01 10° S
CZ-4 DEB 3.4 20:46:41 17° ESE 20:48:36 35° ENE 20:51:31 10° N
GP-B 3.6 20:45:31 10° NNE 20:49:43 38° E 20:53:53 10° SSE
NOSS 3-2 (A) 4.1 20:45:34 10° S 20:51:10 35° ESE 20:57:16 10° ENE
Cosmos 1867 3.6 20:45:56 10° SW 20:51:25 72° SE 20:56:55 10° ENE
Cosmos 1655 Rocket 4.3 20:46:01 10° N 20:52:04 47° ENE 20:57:35 12° SE
ALOS 2.6 20:48:10 10° S 20:52:50 69° WSW 20:57:32 10° NNW
COSMO-SKYMED 1 3.7 20:49:53 10° N 20:54:06 49° WNW 20:58:17 10° SW
Cosmos 1766 3.3 20:50:12 10° SSW 20:54:11 89° W 20:58:14 10° NNE
USA 238 DEB 3.8 20:49:06 10° SW 20:55:59 60° SE 21:02:54 10° ENE
USA 238 3.8 20:49:11 10° SW 20:56:06 60° SE 21:03:00 10° ENE
ERBS 2.9 20:52:50 10° W 20:56:13 46° S 20:58:17 21° SE
SL-14 R/B 4.1 20:52:38 10° N 20:56:21 35° ENE 20:58:39 19° ESE
Nadezhda 4 Rocket 4.1 20:50:18 10° NNW 20:56:40 88° W 21:02:57 10° S
Cosmos 2322 Rocket 3.8 20:52:53 10° W 20:57:55 31° NNW 21:03:00 10° NE
Exosat Rocket 4.1 20:52:29 10° NW 20:58:09 80° NE 21:05:27 12° SE
COSMOS 2428 3.5 20:55:23 10° WSW 21:01:01 55° NW 21:06:41 10° NE
Cosmos 1092 Rocket 4.0 20:55:29 10° NNW 21:01:48 81° ENE 21:08:01 10° SSE
Cosmos 1072 Rocket 4.5 20:57:38 10° SSW 21:03:46 88° WNW 21:09:57 10° NNE
ASTEX 1 3.4 21:00:59 10° N 21:05:56 66° E 21:10:49 10° S
H-2A R/B 3.4 21:05:04 16° E 21:07:36 23° NE 21:11:36 10° N
Sich 1 4.0 21:03:53 10° N 21:07:51 30° ENE 21:09:44 22° ESE
Cosmos 2237 Rocket 2.3 21:03:10 10° SW 21:08:53 86° NW 21:14:36 10° NE
CZ-2D R/B 4.0 21:05:34 10° S 21:09:25 55° W 21:13:16 10° NNW
Cosmos 1953 2.2 21:07:14 10° S 21:11:13 72° E 21:15:13 10° NNE
USA 186 2.0 21:09:42 12° S 21:11:40 46° W 21:14:00 10° NNW
Aureole 2 Rocket 2.8 21:09:03 10° SSW 21:13:24 70° ESE 21:17:34 10° NE
Cosmos 1697 Rocket 4.2 21:09:04 10° NW 21:13:55 28° N 21:18:43 10° ENE
Envisat 3.0 21:10:29 14° SSE 21:14:49 69° ENE 21:19:55 10° NNW
Cosmos 2026 Rocket 3.9 21:12:22 10° NNW 21:18:26 68° ENE 21:23:48 14° SSE
YAOGAN 6 3.4 21:18:25 28° ESE 21:19:36 36° ENE 21:22:59 10° N
Meteor 1-29 3.1 21:16:05 10° NNE 21:19:38 80° WNW 21:23:09 10° SSW
ATLAS 5 CENTAUR R/B 2.7 21:15:42 10° S 21:19:57 29° SE 21:23:28 15° ENE
Cosmos 1980 4.0 21:16:40 10° SW 21:22:20 73° NW 21:28:02 10° NE
CZ-4C R/B 2.3 21:18:29 10° SW 21:24:10 72° SE 21:30:44 10° ENE
Terra 3.3 21:22:27 18° ENE 21:24:12 22° NE 21:27:52 10° N
Cosmos 1805 Rocket 3.8 21:19:49 10° N 21:24:12 52° ENE 21:26:25 27° SE
USA 245 4.1 21:24:55 28° E 21:25:51 31° ENE 21:28:54 10° N
Cosmos 1634 Rocket 4.2 21:20:50 10° SSE 21:26:48 50° E 21:32:46 10° NNE
NOSS 0 Rocket 4.2 21:20:44 10° SW 21:26:56 74° NW 21:33:12 10° NE
Cosmos 1805 3.3 21:23:30 10° SSW 21:27:28 85° WNW 21:31:27 10° NNE
SL-16 R/B 2.1 21:21:52 10° SSW 21:27:33 73° SE 21:33:16 10° NE
Cosmos 1626 3.3 21:24:44 10° N 21:27:58 26° ENE 21:28:27 25° ENE
NOSS 3-2 (C) 3.9 21:22:09 10° SSW 21:28:03 43° SE 21:34:33 10° ENE
YAOGAN 11 4.0 21:24:34 15° SSE 21:28:04 86° WSW 21:32:25 10° NNW
H-2A R/B 4.2 21:25:20 10° SSW 21:29:01 39° W 21:32:42 10° NNW
SPOT 1/Viking Rocket 4.0 21:27:34 26° ESE 21:30:04 44° ENE 21:34:57 10° NNW
H-2A R/B 2.2 21:28:57 27° SE 21:31:13 59° ENE 21:35:41 10° NNW
CENTAUR R/B 4.3 21:34:48 15° ENE 21:34:48 15° ENE 21:36:30 10° ENE
Meteor 2-12 Rocket 4.4 21:26:12 10° S 21:32:23 89° ESE 21:38:36 10° NNE
SJ-11-01 4.5 21:31:34 12° S 21:35:52 72° WSW 21:40:35 10° NNW
Cosmos 2034 Rocket 4.2 21:31:52 10° SSW 21:38:10 77° WNW 21:44:35 10° NNE
Cosmos 1633 Rocket 3.4 21:35:23 10° N 21:39:39 46° ENE 21:40:58 35° ESE
Cosmos 1544 3.1 21:37:34 10° SSW 21:41:21 84° WNW 21:45:08 10° NNE
Cosmos 1656 Rocket 3.7 21:37:41 10° NW 21:43:06 63° NE 21:45:39 31° ESE
MetOp-A 4.1 21:40:00 26° SE 21:43:06 71° ENE 21:48:28 10° NNW
Helios 1B rocket 3.3 21:39:37 10° N 21:43:37 51° WNW 21:47:37 10° SW
Cosmos 1703 3.5 21:40:46 10° N 21:44:36 48° ENE 21:45:21 42° ESE
ARGOS 3.4 21:43:16 30° ESE 21:45:47 54° ENE 21:51:05 10° NNW
COSMOS 2455 3.4 21:40:43 10° WSW 21:46:41 59° NNW 21:52:41 10° NE
SPOT 5 2.5 21:45:11 34° SE 21:47:01 73° ENE 21:51:23 10° NNW
CZ-4 SHROUD 4.1 21:47:38 33° NE 21:47:38 33° NE 21:50:05 10° N
Cosmos 1470 2.6 21:45:10 18° S 21:48:00 73° ESE 21:51:55 10° NNE
Cosmos 1110 Rocket 4.2 21:42:59 10° NW 21:48:16 70° WSW 21:51:32 24° SSE
Cosmos 2219 Rocket 3.2 21:43:54 10° WSW 21:49:23 48° NW 21:54:55 10° NE
Cosmos 2360 Rocket 3.9 21:44:30 10° W 21:49:34 32° NNW 21:54:38 10° NE
Cosmos 1980 Rocket 3.7 21:46:01 10° NW 21:50:58 29° N 21:55:21 12° ENE
Cosmos-2242 3.6 21:47:22 10° SSW 21:51:43 61° WNW 21:56:07 10° N
Cosmos 1758 4.2 21:48:14 10° SSW 21:52:15 53° WNW 21:56:20 10° N
USA 215 3.5 21:49:07 21° E 21:53:13 46° SSE 21:59:29 10° SW
SeaSat 1 2.5 21:51:34 10° NE 21:56:25 51° ESE 22:01:14 10° SSW
CZ-4C R/B 4.5 21:57:00 25° NE 21:57:00 25° NE 21:59:51 10° N
Cosmos 2221 2.9 21:56:52 42° E 21:57:01 42° E 22:01:08 10° NNE
NOAA 11 4.2 21:55:30 34° SE 21:57:52 65° ENE 22:03:15 10° NNW
Cosmos 1842 Rocket 3.5 21:54:15 10° SSW 21:58:36 90° WNW 22:03:00 10° NNE
ERS-1 Rocket 3.5 21:54:42 14° S 21:58:54 57° WSW 22:03:53 10° NNW
PSLV R/B 3.6 22:01:47 50° NNE 22:01:47 50° NNE 22:04:20 10° N
Cosmos 2151 3.7 21:57:43 10° NNW 22:01:50 52° W 22:04:38 19° SSW
Cosmos 1666 Rocket 3.5 21:58:13 10° NNW 22:02:41 78° ENE 22:04:02 44° SSE
Cosmos 2369 Rocket 3.2 21:57:52 10° NW 22:03:08 41° WSW 22:07:13 16° S
SL-08 RB Rocket 3.9 22:02:45 44° ESE 22:03:44 54° ENE 22:08:08 10° NNW
Cosmos 1733 3.1 22:04:19 29° SSW 22:06:14 90° WNW 22:10:08 10° NNE
deb Chang Zheng 4 4.4 22:02:22 10° NNE 22:05:40 33° ENE 22:05:40 33° ENE
Lacrosse 4 Rocket 3.1 22:02:47 10° WNW 22:06:50 31° N 22:09:31 17° ENE
Cosmos 1607 4.0 22:02:38 10° WSW 22:08:49 77° NNW 22:15:02 10° ENE
Meteor 2-20 Rocket 4.4 22:04:00 10° NNW 22:10:14 79° ENE 22:13:13 33° SSE
Meteor 2-20 4.4 22:05:02 10° NNW 22:11:16 88° WSW 22:14:45 28° S
Meteor 2-1 Rocket 4.4 22:10:17 35° SSE 22:12:26 53° E 22:18:10 10° NNE
Cosmos 1943 3.6 22:12:49 40° ESE 22:12:49 40° ESE 22:17:48 10° NE
Cosmos 1943 Rocket 2.5 22:08:49 10° NW 22:14:24 61° WSW 22:16:56 32° S
Cosmos 1603 3.6 22:08:56 10° SSW 22:14:39 70° ESE 22:20:24 10° NE
Cosmos 1939 Rocket 4.0 22:12:28 20° SSW 22:14:51 41° W 22:18:40 10° NNW
Cosmos 1933 Rocket 3.8 22:11:31 10° N 22:15:54 51° ENE 22:16:17 49° E
SL-16 R/B 3.9 22:12:33 10° NW 22:17:25 28° N 22:22:17 10° ENE
Cosmos 2058 3.7 22:15:42 10° NNW 22:19:41 49° W 22:21:26 29° SSW
Cosmos 468 4.4 22:15:09 10° SSW 22:20:25 89° NW 22:25:43 10° NNE
Cosmos 1437 Rocket 3.3 22:21:51 46° NE 22:21:51 46° NE 22:24:56 10° NNE
Cosmos 1470 Rocket 3.5 22:20:07 10° N 22:24:26 60° ENE 22:24:37 60° E
Cosmos 1340 Rocket 3.5 22:20:47 10° N 22:24:10 40° NE 22:24:10 40° NE
Cosmos 2333 Rocket 3.4 22:20:07 10° W 22:25:36 42° NNW 22:31:06 10° NE
ATLAS 3B R/B 3.0 22:18:52 10° W 22:26:21 70° NNW 22:32:56 12° ENE
Cosmos 2180 Rocket 4.4 22:24:08 37° SSE 22:26:34 64° E 22:32:39 10° NNE
GP-B 4.4 22:22:55 10° N 22:27:06 40° WNW 22:31:16 10° SSW
Cosmos 2285 Rocket 4.2 22:21:51 10° NNW 22:28:12 59° NE 22:30:19 41° ESE
CARTOSAT-1 3.9 22:28:43 48° ENE 22:28:46 48° ENE 22:32:58 10° N
ERBS 4.3 22:29:41 10° W 22:31:42 21° SW 22:31:42 21° SW
SL-14 R/B 4.5 22:28:52 10° NNW 22:32:38 39° W 22:34:08 28° SW
Cosmos 1302 Rocket 4.3 22:28:46 10° NW 22:33:55 59° WSW 22:35:32 40° S
Cosmos 1867 4.1 22:29:50 10° W 22:35:16 59° NNW 22:39:48 15° ENE
Cosmos 2278 4.0 22:32:23 10° NW 22:38:03 56° NE 22:39:34 43° E
Cosmos 405 4.3 22:40:36 32° NNE 22:40:36 32° NNE 22:42:42 10° NNE
Cosmos 1269 Rocket 4.0 22:35:51 10° SW 22:41:09 81° WNW 22:46:30 10° NNE
NOSS 3-2 (A) 3.5 22:34:57 10° SW 22:41:23 83° SSE 22:48:34 10° ENE
Cosmos 1356 Rocket 4.2 22:38:02 10° N 22:41:18 39° NE 22:41:18 39° NE
Meteor 1-16 Rocket 4.0 22:40:33 30° SSW 22:43:16 86° WNW 22:48:40 10° NNE
Cosmos 2322 Rocket 3.8 22:38:38 10° NW 22:43:33 29° N 22:47:30 14° ENE
Sich 1 3.6 22:41:30 10° NNW 22:45:50 54° W 22:46:44 45° SW
H-2A R/B 1.8 22:45:42 65° SE 22:46:24 79° ENE 22:51:34 10° NNW
Landsat 7 3.6 22:45:59 72° SE 22:46:26 83° ENE 22:51:14 10° NNW
COSMOS 2428 4.5 22:41:23 10° WNW 22:46:26 30° NNW 22:51:30 10° NE
Cosmos 2228 Rocket 4.0 22:48:06 37° NE 22:48:06 37° NE 22:51:07 10° NNE
USA 238 DEB 3.8 22:39:53 10° WSW 22:46:58 77° NNW 22:54:03 10° ENE
USA 238 3.8 22:39:58 10° WSW 22:47:04 77° NNW 22:54:09 10° ENE
USA 81 4.0 22:46:40 63° ESE 22:47:05 65° E 22:52:21 10° NNE
Cosmos 1048 Rocket 4.0 22:42:14 10° SW 22:47:33 83° WNW 22:52:48 10° NNE
Cosmos 1992 Rocket 3.8 22:45:43 10° NNW 22:51:00 84° ENE 22:51:40 69° SE
Cosmos 2279 Rocket 3.9 22:49:18 27° SSW 22:52:53 84° WNW 22:59:09 10° NNE
YAOGAN 6 3.9 22:52:55 34° WSW 22:53:13 35° W 22:56:38 10° NNW
CZ-4B R/B 4.2 22:48:45 10° NNE 22:52:26 38° ENE 22:52:26 38° ENE
Cosmos 2237 Rocket 3.6 22:48:22 10° W 22:53:39 37° NNW 22:58:54 10° NE
Cosmos 1697 Rocket 3.4 22:53:48 10° NW 22:59:12 44° NNE 23:00:38 37° ENE
Cosmos 2266 Rocket 4.1 22:54:13 10° NNW 23:00:37 73° W 23:02:46 43° S
Terra 1.7 23:01:20 82° E 23:01:24 82° ENE 23:06:13 10° NNW
USA 245 4.2 23:02:15 41° W 23:02:15 41° W 23:05:29 10° NNW
Cosmos 1626 3.0 22:59:57 10° NNW 23:03:09 46° WNW 23:03:09 46° WNW
Cosmos 2369 3.8 22:58:08 10° NW 23:03:54 68° NE 23:04:46 59° E
ATLAS 5 CENTAUR R/B 1.8 22:58:58 10° SW 23:04:03 81° SSE 23:05:06 59° ENE
H-2A R/B 3.8 23:06:04 24° SW 23:07:33 29° W 23:11:30 10° NNW
In-Cosmos 22 Rocket 4.2 23:02:10 10° NNW 23:07:41 62° ENE 23:08:02 60° E
SPOT 1/Viking Rocket 4.2 23:08:13 39° SW 23:09:30 48° W 23:14:31 10° NNW
SL-16 R/B 3.3 23:06:39 10° WSW 23:12:06 44° NNW 23:17:34 10° NE
CZ-4C R/B 2.7 23:06:56 10° W 23:12:55 69° N 23:18:50 15° ENE
IGS 5A 3.9 23:17:48 59° NNW 23:17:48 59° NNW 23:21:15 10° NNW
Cosmos 1633 Rocket 4.4 23:13:25 10° NNW 23:17:22 33° W 23:18:03 31° WSW
NOSS 3-2 (C) 3.6 23:12:05 10° WSW 23:18:35 87° NNW 23:25:52 10° ENE
CENTAUR R/B 2.8 23:21:54 54° ESE 23:21:54 54° ESE 23:28:05 10° ENE
Cosmos 1656 3.8 23:19:05 10° NW 23:24:30 61° NE 23:24:51 59° ENE
ARGOS 4.1 23:24:48 34° SW 23:26:14 41° W 23:31:23 10° NNW
Cosmos 1656 Rocket 4.4 23:21:30 10° NW 23:26:33 40° WSW 23:27:01 39° SW
CZ-4B R/B 4.2 23:29:49 15° NNE 23:29:49 15° NNE 23:30:53 10° N
CZ-4 R/B 4.4 23:24:29 10° NNE 23:28:21 51° NE 23:28:21 51° NE
Cosmos 158 Rocket 4.1 23:30:16 56° W 23:31:01 64° NW 23:35:57 10° NNE
Cosmos 724 4.4 23:25:12 10° WSW 23:31:16 82° NNW 23:37:31 10° ENE
Spot 4 4.0 23:33:57 71° NW 23:33:57 71° NW 23:38:24 10° NNW
COSMOS 2455 3.9 23:27:49 10° WNW 23:33:35 44° N 23:38:16 15° ENE
SeaSat 1 3.2 23:29:13 10° NE 23:34:02 52° NW 23:38:49 10° WSW
Cosmos 2219 Rocket 4.0 23:29:41 10° WNW 23:34:36 29° N 23:39:32 10° NE
Cosmos 2221 3.9 23:33:44 32° W 23:34:43 36° WNW 23:38:46 10° N
Cosmos 2360 Rocket 3.9 23:30:13 10° NW 23:35:09 29° N 23:39:16 13° ENE
SL-19 R/B 4.0 23:30:33 10° NNE 23:35:38 85° N 23:35:38 85° N
Cosmos 1980 Rocket 2.8 23:30:42 10° NW 23:36:14 48° NE 23:37:05 45° ENE
Meteor 2-3 Rocket 3.7 23:30:32 10° NNW 23:36:24 79° ENE 23:36:31 78° E
USA 215 3.1 23:36:30 66° SSE 23:36:54 68° S 23:43:26 10° WSW
Meteor 2-2 Rocket 4.2 23:41:43 69° ENE 23:41:43 69° ENE 23:46:51 10° NNE
Cosmos 2251 Rocket 3.5 23:41:40 78° NNW 23:41:40 78° NNW 23:46:47 10° NNE
deb Chang Zheng 4 4.5 23:38:40 10° N 23:42:54 46° WNW 23:43:04 46° WNW
Cosmos 1709 Rocket 4.4 23:38:17 10° N 23:44:19 47° ENE 23:44:37 47° ENE
Cosmos 1869 Rocket 4.3 23:40:12 10° NNW 23:43:40 53° NNW 23:43:40 53° NNW
Cosmos 1553 Rocket 4.4 23:45:56 46° ENE 23:45:56 46° ENE 23:51:12 10° NNE
S3M 4.4 23:45:48 49° E 23:45:48 49° E 23:51:31 10° NNE
Lacrosse 4 Rocket 2.5 23:42:01 10° NW 23:45:51 46° N 23:45:51 46° N
Cosmos 1745 Rocket 3.8 23:40:08 10° NNW 23:46:30 81° ENE 23:46:51 77° ESE
Cosmos 1733 Rocket 4.4 23:48:04 10° N 23:51:07 35° NNE 23:51:07 35° NNE
